When you browse on this site, cookies collect data to enhance your experience and personalize the content and advertising you see.
Visit our Privacy Policy to learn more. By continuing to use the site, you agree to this use of cookies and data.
  • In Schweiz
  • Länderverzeichnis
  • Für 7 Tage
  • Wassertemperatur
  • Satellitenkarten
  • Wetterkarte
  • Widgets
  • user-avatar
    Anmelden

    Stündliche Wetter Bolotskoe

    Heute, 22 Juli, Montag

    Zeit Temperatur Niederschläge Wind Luftdruck Luftfeuchtigkeit
    00:00 +15°C° 0 mm 1 m/S 748 mmHg 91%
    01:00 +15°C° 0 mm 1 m/S 748 mmHg 91%
    02:00 +15°C° 0 mm 1 m/S 749 mmHg 92%
    03:00 +15°C° 0 mm 1 m/S 749 mmHg 92%
    04:00 +15°C° 0 mm 1 m/S 749 mmHg 92%
    05:00 +15°C° 0 mm 0 m/S 749 mmHg 92%
    06:00 +18°C° 0 mm 1 m/S 749 mmHg 87%
    07:00 +20°C° 0 mm 1 m/S 748 mmHg 82%
    08:00 +22°C° 0 mm 1 m/S 748 mmHg 78%
    09:00 +23°C° 0 mm 1 m/S 748 mmHg 72%
    10:00 +24°C° 0 mm 1 m/S 748 mmHg 67%
    11:00 +25°C° 0 mm 2 m/S 748 mmHg 61%
    12:00 +25°C° 0 mm 2 m/S 748 mmHg 59%
    13:00 +26°C° 0 mm 1 m/S 747 mmHg 57%
    14:00 +26°C° 0 mm 1 m/S 747 mmHg 55%
    15:00 +26°C° 0 mm 1 m/S 747 mmHg 58%
    16:00 +26°C° 0 mm 1 m/S 747 mmHg 62%
    17:00 +26°C° 0 mm 1 m/S 747 mmHg 66%
    18:00 +24°C° 0.1 mm 2 m/S 746 mmHg 71%
    19:00 +21°C° 0.1 mm 2 m/S 746 mmHg 76%
    20:00 +19°C° 0.1 mm 2 m/S 746 mmHg 81%
    21:00 +20°C° 0.4 mm 1 m/S 745 mmHg 86%
    22:00 +19°C° 0.4 mm 1 m/S 745 mmHg 91%
    23:00 +19°C° 0.4 mm 1 m/S 745 mmHg 95%

    Morgen, 23 Juli, Dienstag

    Zeit Temperatur Niederschläge Wind Luftdruck Luftfeuchtigkeit
    00:00 +18°C° 0.3 mm 2 m/S 745 mmHg 95%
    01:00 +18°C° 0.3 mm 2 m/S 745 mmHg 95%
    02:00 +17°C° 0.3 mm 3 m/S 744 mmHg 95%
    03:00 +17°C° 0.3 mm 3 m/S 744 mmHg 96%
    04:00 +17°C° 0.3 mm 3 m/S 744 mmHg 96%
    05:00 +17°C° 0.3 mm 3 m/S 744 mmHg 96%
    06:00 +18°C° 0.3 mm 3 m/S 744 mmHg 95%
    07:00 +19°C° 0.3 mm 3 m/S 743 mmHg 94%
    08:00 +19°C° 0.3 mm 4 m/S 743 mmHg 92%
    09:00 +20°C° 0.4 mm 3 m/S 743 mmHg 91%
    10:00 +20°C° 0.4 mm 3 m/S 743 mmHg 90%
    11:00 +21°C° 0.4 mm 3 m/S 744 mmHg 89%
    12:00 +22°C° 0.7 mm 3 m/S 743 mmHg 84%
    13:00 +23°C° 0.7 mm 2 m/S 743 mmHg 79%
    14:00 +24°C° 0.7 mm 2 m/S 743 mmHg 75%
    15:00 +24°C° 0.2 mm 2 m/S 743 mmHg 75%
    16:00 +24°C° 0.2 mm 2 m/S 743 mmHg 76%
    17:00 +24°C° 0.2 mm 3 m/S 743 mmHg 77%
    18:00 +21°C° 0 mm 2 m/S 743 mmHg 81%
    19:00 +20°C° 0 mm 2 m/S 743 mmHg 86%
    20:00 +19°C° 0 mm 1 m/S 743 mmHg 91%
    21:00 +19°C° 0 mm 1 m/S 743 mmHg 92%
    22:00 +17°C° 0 mm 2 m/S 743 mmHg 93%
    23:00 +17°C° 0 mm 2 m/S 743 mmHg 94%

    übermorgen, 24 Juli, Mittwoch

    Zeit Temperatur Niederschläge Wind Luftdruck Luftfeuchtigkeit
    00:00 +16°C° 0 mm 2 m/S 743 mmHg 95%
    01:00 +16°C° 0 mm 1 m/S 743 mmHg 95%
    02:00 +16°C° 0 mm 1 m/S 743 mmHg 96%
    03:00 +16°C° 0 mm 1 m/S 743 mmHg 95%
    04:00 +18°C° 0 mm 1 m/S 743 mmHg 95%
    05:00 +16°C° 0 mm 0 m/S 743 mmHg 94%
    06:00 +17°C° 0 mm 0 m/S 743 mmHg 91%
    07:00 +18°C° 0 mm 0 m/S 743 mmHg 88%
    08:00 +19°C° 0 mm 0 m/S 744 mmHg 85%
    09:00 +21°C° 0.4 mm 1 m/S 744 mmHg 86%
    10:00 +21°C° 0.4 mm 1 m/S 744 mmHg 87%
    11:00 +21°C° 0.4 mm 1 m/S 744 mmHg 88%
    12:00 +21°C° 0.7 mm 1 m/S 744 mmHg 88%
    13:00 +21°C° 0.7 mm 1 m/S 744 mmHg 88%
    14:00 +21°C° 0.7 mm 1 m/S 744 mmHg 87%
    15:00 +20°C° 0.3 mm 2 m/S 744 mmHg 90%
    16:00 +19°C° 0.3 mm 2 m/S 744 mmHg 93%
    17:00 +18°C° 0.3 mm 3 m/S 744 mmHg 95%
    18:00 +18°C° 0.7 mm 3 m/S 744 mmHg 96%
    19:00 +18°C° 0.7 mm 3 m/S 745 mmHg 96%
    20:00 +18°C° 0.7 mm 3 m/S 745 mmHg 96%
    21:00 +18°C° 0.2 mm 3 m/S 745 mmHg 96%
    22:00 +18°C° 0.2 mm 3 m/S 745 mmHg 96%
    23:00 +18°C° 0.2 mm 3 m/S 745 mmHg 96%

    25 Juli, Donnerstag

    Zeit Temperatur Niederschläge Wind Luftdruck Luftfeuchtigkeit
    00:00 +18°C° 0 mm 3 m/S 745 mmHg 96%
    01:00 +18°C° 0 mm 3 m/S 745 mmHg 95%
    02:00 +18°C° 0 mm 3 m/S 745 mmHg 95%
    03:00 +18°C° 0 mm 3 m/S 746 mmHg 94%
    04:00 +18°C° 0 mm 3 m/S 746 mmHg 94%
    05:00 +18°C° 0 mm 4 m/S 746 mmHg 93%
    06:00 +19°C° 0 mm 4 m/S 746 mmHg 92%
    07:00 +19°C° 0 mm 4 m/S 747 mmHg 91%
    08:00 +20°C° 0 mm 3 m/S 747 mmHg 90%
    09:00 +21°C° 0.5 mm 3 m/S 747 mmHg 84%
    10:00 +24°C° 0.5 mm 3 m/S 748 mmHg 79%
    11:00 +25°C° 0.5 mm 3 m/S 748 mmHg 73%
    12:00 +25°C° 0.7 mm 3 m/S 748 mmHg 72%
    13:00 +26°C° 0.7 mm 3 m/S 748 mmHg 71%
    14:00 +26°C° 0.7 mm 2 m/S 748 mmHg 70%
    15:00 +26°C° 0.7 mm 2 m/S 748 mmHg 73%
    16:00 +26°C° 0.7 mm 3 m/S 748 mmHg 76%
    17:00 +25°C° 0.7 mm 3 m/S 748 mmHg 79%
    18:00 +24°C° 0.3 mm 3 m/S 748 mmHg 83%
    19:00 +21°C° 0.3 mm 3 m/S 748 mmHg 87%
    20:00 +19°C° 0.3 mm 3 m/S 748 mmHg 91%
    21:00 +19°C° 0 mm 3 m/S 748 mmHg 92%
    22:00 +18°C° 0 mm 3 m/S 748 mmHg 92%
    23:00 +18°C° 0 mm 3 m/S 748 mmHg 93%

    26 Juli, Freitag

    Zeit Temperatur Niederschläge Wind Luftdruck Luftfeuchtigkeit
    00:00 +17°C° 0 mm 3 m/S 748 mmHg 94%
    01:00 +17°C° 0 mm 3 m/S 748 mmHg 94%
    02:00 +17°C° 0 mm 3 m/S 748 mmHg 95%
    03:00 +17°C° 0 mm 3 m/S 748 mmHg 94%
    04:00 +17°C° 0 mm 3 m/S 748 mmHg 94%
    05:00 +16°C° 0 mm 3 m/S 748 mmHg 93%
    06:00 +18°C° 0 mm 3 m/S 748 mmHg 89%
    07:00 +19°C° 0 mm 3 m/S 748 mmHg 84%
    08:00 +21°C° 0 mm 3 m/S 748 mmHg 79%
    09:00 +22°C° 0 mm 4 m/S 748 mmHg 74%
    10:00 +23°C° 0 mm 4 m/S 748 mmHg 70%
    11:00 +25°C° 0 mm 5 m/S 747 mmHg 65%
    12:00 +25°C° 0.1 mm 5 m/S 747 mmHg 62%
    13:00 +25°C° 0.1 mm 5 m/S 747 mmHg 60%
    14:00 +26°C° 0.1 mm 5 m/S 747 mmHg 57%
    15:00 +25°C° 0 mm 4 m/S 746 mmHg 61%
    16:00 +25°C° 0 mm 4 m/S 746 mmHg 65%
    17:00 +24°C° 0 mm 3 m/S 746 mmHg 68%
    18:00 +23°C° 0 mm 2 m/S 746 mmHg 72%
    19:00 +20°C° 0 mm 2 m/S 746 mmHg 76%
    20:00 +18°C° 0 mm 2 m/S 747 mmHg 79%
    21:00 +18°C° 0 mm 2 m/S 747 mmHg 81%
    22:00 +17°C° 0 mm 3 m/S 747 mmHg 83%
    23:00 +16°C° 0 mm 3 m/S 746 mmHg 84%

    27 Juli, Samstag

    Zeit Temperatur Niederschläge Wind Luftdruck Luftfeuchtigkeit
    00:00 +14°C° 0 mm 3 m/S 746 mmHg 87%
    01:00 +13°C° 0 mm 3 m/S 746 mmHg 90%
    02:00 +12°C° 0 mm 3 m/S 746 mmHg 93%
    03:00 +12°C° 0 mm 3 m/S 746 mmHg 92%
    04:00 +13°C° 0 mm 3 m/S 746 mmHg 91%
    05:00 +13°C° 0 mm 3 m/S 746 mmHg 90%
    06:00 +14°C° 0 mm 4 m/S 746 mmHg 85%
    07:00 +17°C° 0 mm 4 m/S 746 mmHg 81%
    08:00 +18°C° 0 mm 4 m/S 746 mmHg 76%
    09:00 +19°C° 0 mm 4 m/S 746 mmHg 71%
    10:00 +20°C° 0 mm 4 m/S 746 mmHg 66%
    11:00 +22°C° 0 mm 4 m/S 746 mmHg 62%
    12:00 +22°C° 0 mm 4 m/S 745 mmHg 61%
    13:00 +23°C° 0 mm 4 m/S 745 mmHg 59%
    14:00 +23°C° 0 mm 4 m/S 744 mmHg 58%
    15:00 +24°C° 0 mm 3 m/S 744 mmHg 63%
    16:00 +22°C° 0 mm 3 m/S 744 mmHg 67%
    17:00 +22°C° 0 mm 3 m/S 743 mmHg 72%
    18:00 +20°C° 0 mm 2 m/S 743 mmHg 75%
    19:00 +19°C° 0 mm 1 m/S 743 mmHg 79%
    20:00 +18°C° 0 mm 1 m/S 743 mmHg 82%
    21:00 +18°C° 0.2 mm 1 m/S 742 mmHg 84%
    22:00 +17°C° 0.2 mm 2 m/S 742 mmHg 86%
    23:00 +17°C° 0.2 mm 2 m/S 742 mmHg 87%
    Mehr zeigen